Pontiac, MI

7:27 AM EDT on June 28, 2017 (GMT -0400)
Oakland County International

Weather History for KPTK - February, 2013

Change the Weather History Date:

Sunday, February 3, 2013

  Actual Average Record
Temperature  
Mean Temperature 10 °F -  
Max Temperature 19 °F 31 °F 52 °F (2016)
Min Temperature 1 °F 17 °F 0 °F (2014)
Degree Days  
Heating Degree Days 55    
Moisture  
Dew Point 6 °F    
Average Humidity 75    
Maximum Humidity 88    
Minimum Humidity 62    
Precipitation  
Precipitation 0.00 in - - ()
Snow  
Snow 0.00 in - - ()
Snow Depth 3.00 in    
Sea Level Pressure  
Sea Level Pressure 29.92 in    
Wind  
Wind Speed 5 mph (West)    
Max Wind Speed 18 mph    
Max Gust Speed 29 mph    
Visibility 6 miles    
Events Snow    
Averages and records for this station are not official NWS values.
T = Trace of Precipitation, MM = Missing Value Source: NWS Daily Summary

Daily Weather History Graph

Daily Weather History Graph

Search for Another Location

Airport or City:

Trip Planner

Search our weather history database for the weather conditions in past years. The results will help you decide how hot, cold, wet, or windy it might be!

Date:

Astronomy

Feb. 03, 2013 Rise Set
Actual Time 7:45 AM EST 5:50 PM EST
Civil Twilight 7:15 AM EST 6:19 PM EST
Nautical Twilight 6:42 AM EST 6:53 PM EST
Astronomical Twilight 6:09 AM EST 7:26 PM EST
Moon 1:12 AM EST (2/3) 11:25 AM EST (2/3)
Length of Visible Light 11h 04m
Length of Day
10h 04m
Waning Gibbous, 49% of the Moon is Illuminated
Feb 3
Waning Gibbous
Feb 10
New
Feb 17
First Quarter
Feb 25
Full
Mar 4
Last Quarter

Hourly Weather History & Observations

Time (EST) Temp. Windchill Dew Point Humidity Pressure Visibility Wind Dir Wind Speed Gust Speed Precip Events Conditions
12:53 AM 3.9 °F - -0.0 °F 84% 30.02 in 10.0 mi Calm Calm - N/A   Clear
1:53 AM 3.0 °F - -2.0 °F 80% 30.00 in 8.0 mi Calm Calm - N/A   Partly Cloudy
2:53 AM 3.9 °F -3.4 °F 1.0 °F 88% 29.99 in 10.0 mi West 3.5 mph - N/A   Mostly Cloudy
3:53 AM 3.9 °F - 1.0 °F 88% 29.96 in 10.0 mi Calm Calm - N/A   Mostly Cloudy
4:53 AM 3.9 °F - -0.0 °F 84% 29.95 in 10.0 mi Calm Calm - N/A   Clear
5:53 AM 3.0 °F - -0.9 °F 84% 29.94 in 10.0 mi Calm Calm - N/A   Partly Cloudy
6:53 AM 1.0 °F -8.7 °F -2.9 °F 83% 29.94 in 10.0 mi West 4.6 mph - N/A   Partly Cloudy
7:53 AM 1.9 °F - -2.0 °F 83% 29.94 in 10.0 mi Calm Calm - 0.00 in   Mostly Cloudy
8:53 AM 6.1 °F - 1.9 °F 83% 29.92 in 10.0 mi Calm Calm - N/A   Mostly Cloudy
9:53 AM 10.9 °F 1.4 °F 5.0 °F 77% 29.93 in 10.0 mi West 5.8 mph - N/A   Overcast
10:53 AM 12.9 °F 2.6 °F 3.9 °F 67% 29.91 in 10.0 mi WSW 6.9 mph - N/A   Mostly Cloudy
11:53 AM 15.1 °F 4.2 °F 7.0 °F 70% 29.90 in 10.0 mi SW 8.1 mph - N/A   Mostly Cloudy
12:53 PM 17.1 °F 5.8 °F 9.0 °F 71% 29.87 in 4.0 mi WSW 9.2 mph - 0.00 in Snow Light Snow
1:31 PM 17.6 °F 7.3 °F 10.4 °F 73% 29.80 in 4.0 mi SW 8.1 mph - 0.00 in Snow Light Snow
1:53 PM 18.0 °F 6.1 °F 10.9 °F 74% 29.86 in 4.0 mi WSW 10.4 mph - 0.00 in Snow Light Snow
2:07 PM 19.4 °F 9.5 °F 10.4 °F 68% 29.80 in 2.0 mi WSW 8.1 mph - 0.00 in Snow Light Snow
2:50 PM 19.4 °F 9.5 °F 12.2 °F 74% 29.79 in 0.8 mi West 8.1 mph - 0.00 in Snow Light Snow
2:53 PM 19.0 °F 7.5 °F 12.9 °F 77% 29.85 in 0.8 mi West 10.4 mph - 0.00 in Snow Light Snow
3:53 PM 19.0 °F 4.0 °F 12.9 °F 77% 29.88 in 1.0 mi West 17.3 mph 26.5 mph 0.00 in Snow Light Snow
4:28 PM 19.4 °F 9.5 °F 12.2 °F 74% 29.82 in 1.0 mi WNW 8.1 mph - 0.00 in Snow Light Snow
4:53 PM 18.0 °F 5.4 °F 12.9 °F 81% 29.89 in 1.0 mi WNW 11.5 mph - 0.00 in Snow Light Snow
5:53 PM 18.0 °F 5.4 °F 12.0 °F 78% 29.91 in 1.2 mi WNW 11.5 mph - 0.00 in Snow Light Snow
6:12 PM 17.6 °F 4.3 °F 12.2 °F 79% 29.86 in 2.0 mi WNW 12.7 mph - 0.00 in Snow Light Snow
6:25 PM 17.6 °F 4.3 °F 12.2 °F 79% 29.87 in 1.5 mi WNW 12.7 mph - 0.00 in Snow Light Snow
6:53 PM 17.1 °F 3.6 °F 10.9 °F 77% 29.94 in 1.5 mi WNW 12.7 mph - 0.00 in Snow Light Snow
7:53 PM 16.0 °F -0.4 °F 6.1 °F 65% 29.97 in 1.8 mi WNW 18.4 mph 28.8 mph 0.00 in Snow Light Snow
8:10 PM 15.8 °F 0.9 °F 5.0 °F 62% 29.91 in 7.0 mi WNW 15.0 mph 23.0 mph 0.00 in Snow Light Snow
8:31 PM 14.0 °F -0.2 °F 3.2 °F 62% 29.92 in 8.0 mi West 12.7 mph - 0.00 in   Mostly Cloudy
8:53 PM 12.9 °F -0.9 °F 3.0 °F 65% 29.98 in 10.0 mi West 11.5 mph - 0.00 in   Scattered Clouds
9:53 PM 14.0 °F 2.0 °F 3.0 °F 62% 30.00 in 10.0 mi West 9.2 mph - N/A   Scattered Clouds
10:53 PM 14.0 °F 5.1 °F 5.0 °F 67% 30.00 in 10.0 mi West 5.8 mph - N/A   Overcast
11:53 PM 12.9 °F 3.8 °F 3.9 °F 67% 30.00 in 10.0 mi West 5.8 mph - N/A   Scattered Clouds